Year,Month,Day,Hour,Minute,Value (Times are PST for barometer in hPa)
2016,10,15,00,00,1000.58
2016,10,15,00,01,1000.61
2016,10,15,00,02,1000.61
2016,10,15,00,03,1000.68
2016,10,15,00,04,1000.68
2016,10,15,00,05,1000.71
2016,10,15,00,06,1000.68
2016,10,15,00,07,1000.64
2016,10,15,00,08,1000.61
2016,10,15,00,09,1000.61
2016,10,15,00,10,1000.61
2016,10,15,00,11,1000.58
2016,10,15,00,12,1000.58
2016,10,15,00,13,1000.58
2016,10,15,00,14,1000.54
2016,10,15,00,15,1000.54
2016,10,15,00,16,1000.58
2016,10,15,00,17,1000.54
2016,10,15,00,18,1000.58
2016,10,15,00,19,1000.54
2016,10,15,00,20,1000.58
2016,10,15,00,21,1000.58
2016,10,15,00,22,1000.58
2016,10,15,00,23,1000.61
2016,10,15,00,24,1000.58
2016,10,15,00,25,1000.61
2016,10,15,00,26,1000.54
2016,10,15,00,27,1000.58
2016,10,15,00,28,1000.61
2016,10,15,00,29,1000.58
2016,10,15,00,30,1000.54
2016,10,15,00,31,1000.58
2016,10,15,00,32,1000.54
2016,10,15,00,33,1000.54
2016,10,15,00,34,1000.54
2016,10,15,00,35,1000.58
2016,10,15,00,36,1000.58
2016,10,15,00,37,1000.64
2016,10,15,00,38,1000.61
2016,10,15,00,39,1000.64
2016,10,15,00,40,1000.64
2016,10,15,00,41,1000.64
2016,10,15,00,42,1000.61
2016,10,15,00,43,1000.68
2016,10,15,00,44,1000.64
2016,10,15,00,45,1000.68
2016,10,15,00,46,1000.68
2016,10,15,00,47,1000.75
2016,10,15,00,48,1000.75
2016,10,15,00,49,1000.71
2016,10,15,00,50,1000.75
2016,10,15,00,51,1000.78
2016,10,15,00,52,1000.75
2016,10,15,00,53,1000.81
2016,10,15,00,54,1000.81
2016,10,15,00,55,1000.85
2016,10,15,00,56,1000.85
2016,10,15,00,57,1000.85
2016,10,15,00,58,1000.85
2016,10,15,00,59,1000.88
2016,10,15,01,00,1000.88
2016,10,15,01,01,1000.81
2016,10,15,01,02,1000.85
2016,10,15,01,03,1000.81
2016,10,15,01,04,1000.78
2016,10,15,01,05,1000.75
2016,10,15,01,06,1000.71
2016,10,15,01,07,1000.71
2016,10,15,01,08,1000.71
2016,10,15,01,09,1000.75
2016,10,15,01,10,1000.75
2016,10,15,01,11,1000.78
2016,10,15,01,12,1000.78
2016,10,15,01,13,1000.80
2016,10,15,01,14,1000.71
2016,10,15,01,15,1000.71
2016,10,15,01,16,1000.71
2016,10,15,01,17,1000.71
2016,10,15,01,18,1000.78
2016,10,15,01,19,1000.78
2016,10,15,01,20,1000.78
2016,10,15,01,21,1000.78
2016,10,15,01,22,1000.88
2016,10,15,01,23,1000.92
2016,10,15,01,24,1000.95
2016,10,15,01,25,1000.98
2016,10,15,01,26,1000.95
2016,10,15,01,27,1000.98
2016,10,15,01,28,1000.95
2016,10,15,01,29,1000.92
2016,10,15,01,30,1000.88
2016,10,15,01,31,1000.92
2016,10,15,01,32,1000.95
2016,10,15,01,33,1000.95
2016,10,15,01,34,1000.95
2016,10,15,01,35,1000.95
2016,10,15,01,36,1000.98
2016,10,15,01,37,1000.98
2016,10,15,01,38,1001.02
2016,10,15,01,39,1001.02
2016,10,15,01,40,1000.98
2016,10,15,01,41,1000.95
2016,10,15,01,42,1000.95
2016,10,15,01,43,1000.92
2016,10,15,01,44,1000.95
2016,10,15,01,45,1000.92
2016,10,15,01,46,1000.92
2016,10,15,01,47,1000.95
2016,10,15,01,48,1000.95
2016,10,15,01,49,1000.92
2016,10,15,01,50,1000.95
2016,10,15,01,51,1000.92
2016,10,15,01,52,1000.88
2016,10,15,01,53,1000.91
2016,10,15,01,54,1000.81
2016,10,15,01,55,1000.85
2016,10,15,01,56,1000.81
2016,10,15,01,57,1000.88
2016,10,15,01,58,1000.88
2016,10,15,01,59,1000.88
2016,10,15,02,00,1000.88
2016,10,15,02,01,1000.85
2016,10,15,02,02,1000.88
2016,10,15,02,03,1000.88
2016,10,15,02,04,1000.88
2016,10,15,02,05,1000.92
2016,10,15,02,06,1000.85
2016,10,15,02,07,1000.85
2016,10,15,02,08,1000.85
2016,10,15,02,09,1000.81
2016,10,15,02,10,1000.81
2016,10,15,02,11,1000.81
2016,10,15,02,12,1000.81
2016,10,15,02,13,1000.85
2016,10,15,02,14,1000.85
2016,10,15,02,15,1000.85
2016,10,15,02,16,1000.88
2016,10,15,02,17,1000.88
2016,10,15,02,18,1000.92
2016,10,15,02,19,1000.92
2016,10,15,02,20,1000.92
2016,10,15,02,21,1000.95
2016,10,15,02,22,1000.92
2016,10,15,02,23,1000.95
2016,10,15,02,24,1000.92
2016,10,15,02,25,1000.95
2016,10,15,02,26,1000.95
2016,10,15,02,27,1001.02
2016,10,15,02,28,1001.05
2016,10,15,02,29,1001.05
2016,10,15,02,30,1001.05
2016,10,15,02,31,1001.02
2016,10,15,02,32,1001.02
2016,10,15,02,33,1001.05
2016,10,15,02,34,1001.05
2016,10,15,02,35,1001.05
2016,10,15,02,36,1000.98
2016,10,15,02,37,1000.98
2016,10,15,02,38,1000.98
2016,10,15,02,39,1000.98
2016,10,15,02,40,1000.98
2016,10,15,02,41,1001.02
2016,10,15,02,42,1001.02
2016,10,15,02,43,1001.02
2016,10,15,02,44,1001.08
2016,10,15,02,45,1001.08
2016,10,15,02,46,1001.05
2016,10,15,02,47,1001.05
2016,10,15,02,48,1001.02
2016,10,15,02,49,1000.98
2016,10,15,02,50,1000.95
2016,10,15,02,51,1000.95
2016,10,15,02,52,1000.92
2016,10,15,02,53,1000.92
2016,10,15,02,54,1000.92
2016,10,15,02,55,1000.95
2016,10,15,02,56,1000.95
2016,10,15,02,57,1000.95
2016,10,15,02,58,1000.92
2016,10,15,02,59,1000.92
2016,10,15,03,00,1000.92
2016,10,15,03,01,1000.85
2016,10,15,03,02,1000.88
2016,10,15,03,03,1000.88
2016,10,15,03,04,1000.85
2016,10,15,03,05,1000.85
2016,10,15,03,06,1000.81
2016,10,15,03,07,1000.85
2016,10,15,03,08,1000.85
2016,10,15,03,09,1000.85
2016,10,15,03,10,1000.85
2016,10,15,03,11,1000.81
2016,10,15,03,12,1000.81
2016,10,15,03,13,1000.81
2016,10,15,03,14,1000.78
2016,10,15,03,15,1000.78
2016,10,15,03,16,1000.75
2016,10,15,03,17,1000.71
2016,10,15,03,18,1000.75
2016,10,15,03,19,1000.75
2016,10,15,03,20,1000.71
2016,10,15,03,21,1000.68
2016,10,15,03,22,1000.75
2016,10,15,03,23,1000.68
2016,10,15,03,24,1000.68
2016,10,15,03,25,1000.64
2016,10,15,03,26,1000.64
2016,10,15,03,27,1000.61
2016,10,15,03,28,1000.54
2016,10,15,03,29,1000.54
2016,10,15,03,30,1000.51
2016,10,15,03,31,1000.51
2016,10,15,03,32,1000.54
2016,10,15,03,33,1000.54
2016,10,15,03,34,1000.54
2016,10,15,03,35,1000.51
2016,10,15,03,36,1000.54
2016,10,15,03,37,1000.54
2016,10,15,03,38,1000.58
2016,10,15,03,39,1000.54
2016,10,15,03,40,1000.58
2016,10,15,03,41,1000.54
2016,10,15,03,42,1000.54
2016,10,15,03,43,1000.58
2016,10,15,03,44,1000.61
2016,10,15,03,45,1000.61
2016,10,15,03,46,1000.61
2016,10,15,03,47,1000.64
2016,10,15,03,48,1000.71
2016,10,15,03,49,1000.71
2016,10,15,03,50,1000.68
2016,10,15,03,51,1000.71
2016,10,15,03,52,1000.71
2016,10,15,03,53,1000.71
2016,10,15,03,54,1000.68
2016,10,15,03,55,1000.64
2016,10,15,03,56,1000.64
2016,10,15,03,57,1000.64
2016,10,15,03,58,1000.64
2016,10,15,03,59,1000.68
2016,10,15,04,00,1000.68
2016,10,15,04,01,1000.71
2016,10,15,04,02,1000.75
2016,10,15,04,03,1000.75
2016,10,15,04,04,1000.68
2016,10,15,04,05,1000.64
2016,10,15,04,06,1000.64
2016,10,15,04,07,1000.64
2016,10,15,04,08,1000.64
2016,10,15,04,09,1000.61
2016,10,15,04,10,1000.64
2016,10,15,04,11,1000.61
2016,10,15,04,12,1000.58
2016,10,15,04,13,1000.61
2016,10,15,04,14,1000.58
2016,10,15,04,15,1000.58
2016,10,15,04,16,1000.61
2016,10,15,04,17,1000.64
2016,10,15,04,18,1000.61
2016,10,15,04,19,1000.61
2016,10,15,04,20,1000.58
2016,10,15,04,21,1000.61
2016,10,15,04,22,1000.58
2016,10,15,04,23,1000.54
2016,10,15,04,24,1000.51
2016,10,15,04,25,1000.51
2016,10,15,04,26,1000.44
2016,10,15,04,27,1000.44
2016,10,15,04,28,1000.37
2016,10,15,04,29,1000.37
2016,10,15,04,30,1000.24
2016,10,15,04,31,1000.27
2016,10,15,04,32,1000.20
2016,10,15,04,33,1000.20
2016,10,15,04,34,1000.17
2016,10,15,04,35,1000.17
2016,10,15,04,36,1000.20
2016,10,15,04,37,1000.17
2016,10,15,04,38,1000.17
2016,10,15,04,39,1000.20
2016,10,15,04,40,1000.17
2016,10,15,04,41,1000.20
2016,10,15,04,42,1000.17
2016,10,15,04,43,1000.17
2016,10,15,04,44,1000.17
2016,10,15,04,45,1000.20
2016,10,15,04,46,1000.14
2016,10,15,04,47,1000.17
2016,10,15,04,48,1000.20
2016,10,15,04,49,1000.10
2016,10,15,04,50,1000.10
2016,10,15,04,51,1000.10
2016,10,15,04,52,1000.07
2016,10,15,04,53,1000.03
2016,10,15,04,54,1000.03
2016,10,15,04,55,1000.03
2016,10,15,04,56,999.93
2016,10,15,04,57,999.93
2016,10,15,04,58,999.97
2016,10,15,04,59,1000.00
2016,10,15,05,00,1000.03
2016,10,15,05,01,1000.03
2016,10,15,05,02,1000.10
2016,10,15,05,03,1000.14
2016,10,15,05,04,1000.17
2016,10,15,05,05,1000.14
2016,10,15,05,06,1000.10
2016,10,15,05,07,1000.17
2016,10,15,05,08,1000.10
2016,10,15,05,09,1000.07
2016,10,15,05,10,1000.03
2016,10,15,05,11,1000.07
2016,10,15,05,12,1000.10
2016,10,15,05,13,1000.17
2016,10,15,05,14,1000.20
2016,10,15,05,15,1000.24
2016,10,15,05,16,1000.27
2016,10,15,05,17,1000.27
2016,10,15,05,18,1000.20
2016,10,15,05,19,1000.20
2016,10,15,05,20,1000.14
2016,10,15,05,21,1000.14
2016,10,15,05,22,1000.07
2016,10,15,05,23,1000.03
2016,10,15,05,24,999.97
2016,10,15,05,25,999.97
2016,10,15,05,26,999.90
2016,10,15,05,27,999.93
2016,10,15,05,28,999.93
2016,10,15,05,29,999.90
2016,10,15,05,30,999.93
2016,10,15,05,31,999.90
2016,10,15,05,32,999.93
2016,10,15,05,33,999.93
2016,10,15,05,34,999.97
2016,10,15,05,35,999.90
2016,10,15,05,36,999.97
2016,10,15,05,37,999.93
2016,10,15,05,38,999.93
2016,10,15,05,39,999.90
2016,10,15,05,40,999.87
2016,10,15,05,41,999.80
2016,10,15,05,42,999.76
2016,10,15,05,43,999.76
2016,10,15,05,44,999.76
2016,10,15,05,45,999.80
2016,10,15,05,46,999.83
2016,10,15,05,47,999.90
2016,10,15,05,48,999.93
2016,10,15,05,49,999.90
2016,10,15,05,50,999.90
2016,10,15,05,51,999.87
2016,10,15,05,52,999.83
2016,10,15,05,53,999.80
2016,10,15,05,54,999.83
2016,10,15,05,55,999.83
2016,10,15,05,56,999.80
2016,10,15,05,57,999.80
2016,10,15,05,58,999.76
2016,10,15,05,59,999.70
2016,10,15,06,00,999.66
2016,10,15,06,01,999.63
2016,10,15,06,02,999.59
2016,10,15,06,03,999.66
2016,10,15,06,04,999.70
2016,10,15,06,05,999.66
2016,10,15,06,06,999.70
2016,10,15,06,07,999.73
2016,10,15,06,08,999.80
2016,10,15,06,09,999.83
2016,10,15,06,10,999.83
2016,10,15,06,11,999.80
2016,10,15,06,12,999.73
2016,10,15,06,13,999.70
2016,10,15,06,14,999.59
2016,10,15,06,15,999.59
2016,10,15,06,16,999.56
2016,10,15,06,17,999.59
2016,10,15,06,18,999.63
2016,10,15,06,19,999.70
2016,10,15,06,20,999.66
2016,10,15,06,21,999.66
2016,10,15,06,22,999.70
2016,10,15,06,23,999.70
2016,10,15,06,24,999.66
2016,10,15,06,25,999.63
2016,10,15,06,26,999.59
2016,10,15,06,27,999.59
2016,10,15,06,28,999.53
2016,10,15,06,29,999.46
2016,10,15,06,30,999.43
2016,10,15,06,31,999.39
2016,10,15,06,32,999.32
2016,10,15,06,33,999.43
2016,10,15,06,34,999.39
2016,10,15,06,35,999.36
2016,10,15,06,36,999.32
2016,10,15,06,37,999.26
2016,10,15,06,38,999.22
2016,10,15,06,39,999.22
2016,10,15,06,40,999.19
2016,10,15,06,41,999.09
2016,10,15,06,42,999.05
2016,10,15,06,43,999.05
2016,10,15,06,44,998.99
2016,10,15,06,45,998.92
2016,10,15,06,46,998.95
2016,10,15,06,47,998.92
2016,10,15,06,48,998.92
2016,10,15,06,49,998.92
2016,10,15,06,50,998.95
2016,10,15,06,51,998.92
2016,10,15,06,52,998.88
2016,10,15,06,53,998.88
2016,10,15,06,54,998.92
2016,10,15,06,55,998.88
2016,10,15,06,56,998.88
2016,10,15,06,57,998.82
2016,10,15,06,58,998.85
2016,10,15,06,59,998.82
2016,10,15,07,00,998.82
2016,10,15,07,01,998.85
2016,10,15,07,02,998.85
2016,10,15,07,03,998.85
2016,10,15,07,04,998.85
2016,10,15,07,05,998.85
2016,10,15,07,06,998.85
2016,10,15,07,07,998.92
2016,10,15,07,08,998.88
2016,10,15,07,09,998.85
2016,10,15,07,10,998.82
2016,10,15,07,11,998.82
2016,10,15,07,12,998.78
2016,10,15,07,13,998.78
2016,10,15,07,14,998.75
2016,10,15,07,15,998.75
2016,10,15,07,16,998.75
2016,10,15,07,17,998.68
2016,10,15,07,18,998.68
2016,10,15,07,19,998.68
2016,10,15,07,20,998.68
2016,10,15,07,21,998.58
2016,10,15,07,22,998.65
2016,10,15,07,23,998.65
2016,10,15,07,24,998.68
2016,10,15,07,25,998.65
2016,10,15,07,26,998.68
2016,10,15,07,27,998.54
2016,10,15,07,28,998.54
2016,10,15,07,29,998.44
2016,10,15,07,30,998.41
2016,10,15,07,31,998.44
2016,10,15,07,32,998.38
2016,10,15,07,33,998.38
2016,10,15,07,34,998.38
2016,10,15,07,35,998.34
2016,10,15,07,36,998.31
2016,10,15,07,37,998.27
2016,10,15,07,38,998.24
2016,10,15,07,39,998.24
2016,10,15,07,40,998.17
2016,10,15,07,41,998.21
2016,10,15,07,42,998.17
2016,10,15,07,43,998.14
2016,10,15,07,44,998.14
2016,10,15,07,45,998.14
2016,10,15,07,46,998.17
2016,10,15,07,47,998.17
2016,10,15,07,48,998.10
2016,10,15,07,49,998.04
2016,10,15,07,50,998.07
2016,10,15,07,51,998.04
2016,10,15,07,52,997.97
2016,10,15,07,53,998.07
2016,10,15,07,54,998.04
2016,10,15,07,55,998.07
2016,10,15,07,56,998.04
2016,10,15,07,57,998.04
2016,10,15,07,58,998.07
2016,10,15,07,59,998.04
2016,10,15,08,00,998.04
2016,10,15,08,01,998.04
2016,10,15,08,02,998.04
2016,10,15,08,03,998.04
2016,10,15,08,04,998.00
2016,10,15,08,05,998.00
2016,10,15,08,06,998.00
2016,10,15,08,07,997.94
2016,10,15,08,08,997.94
2016,10,15,08,09,997.94
2016,10,15,08,10,997.94
2016,10,15,08,11,997.87
2016,10,15,08,12,997.90
2016,10,15,08,13,997.90
2016,10,15,08,14,997.87
2016,10,15,08,15,997.90
2016,10,15,08,16,997.87
2016,10,15,08,17,997.87
2016,10,15,08,18,997.87
2016,10,15,08,19,997.77
2016,10,15,08,20,997.87
2016,10,15,08,21,997.83
2016,10,15,08,22,997.83
2016,10,15,08,23,997.77
2016,10,15,08,24,997.77
2016,10,15,08,25,997.73
2016,10,15,08,26,997.70
2016,10,15,08,27,997.66
2016,10,15,08,28,997.66
2016,10,15,08,29,997.60
2016,10,15,08,30,997.63
2016,10,15,08,31,997.66
2016,10,15,08,32,997.66
2016,10,15,08,33,997.63
2016,10,15,08,34,997.66
2016,10,15,08,35,997.63
2016,10,15,08,36,997.63
2016,10,15,08,37,997.63
2016,10,15,08,38,997.56
2016,10,15,08,39,997.53
2016,10,15,08,40,997.53
2016,10,15,08,41,997.53
2016,10,15,08,42,997.46
2016,10,15,08,43,997.46
2016,10,15,08,44,997.50
2016,10,15,08,45,997.46
2016,10,15,08,46,997.46
2016,10,15,08,47,997.46
2016,10,15,08,48,997.46
2016,10,15,08,49,997.43
2016,10,15,08,50,997.43
2016,10,15,08,51,997.43
2016,10,15,08,52,997.43
2016,10,15,08,53,997.30
2016,10,15,08,54,997.33
2016,10,15,08,55,997.29
2016,10,15,08,56,997.29
2016,10,15,08,57,997.22
2016,10,15,08,58,997.22
2016,10,15,08,59,997.22
2016,10,15,09,00,997.22
2016,10,15,09,01,997.19
2016,10,15,09,02,997.16
2016,10,15,09,03,997.09
2016,10,15,09,04,997.12
2016,10,15,09,05,997.09
2016,10,15,09,06,997.05
2016,10,15,09,07,997.05
2016,10,15,09,08,996.96
2016,10,15,09,09,996.95
2016,10,15,09,10,996.99
2016,10,15,09,11,996.92
2016,10,15,09,12,996.92
2016,10,15,09,13,996.85
2016,10,15,09,14,996.82
2016,10,15,09,15,996.82
2016,10,15,09,16,996.82
2016,10,15,09,17,996.75
2016,10,15,09,18,996.68
2016,10,15,09,19,996.68
2016,10,15,09,20,996.65
2016,10,15,09,21,996.65
2016,10,15,09,22,996.65
2016,10,15,09,23,996.65
2016,10,15,09,24,996.61
2016,10,15,09,25,996.58
2016,10,15,09,26,996.41
2016,10,15,09,27,996.34
2016,10,15,09,28,996.34
2016,10,15,09,29,996.31
2016,10,15,09,30,996.31
2016,10,15,09,31,996.31
2016,10,15,09,32,996.24
2016,10,15,09,33,996.28
2016,10,15,09,34,996.28
2016,10,15,09,35,996.21
2016,10,15,09,36,996.21
2016,10,15,09,37,996.17
2016,10,15,09,38,996.17
2016,10,15,09,39,996.07
2016,10,15,09,40,996.04
2016,10,15,09,41,995.94
2016,10,15,09,42,995.97
2016,10,15,09,43,995.90
2016,10,15,09,44,995.87
2016,10,15,09,45,995.87
2016,10,15,09,46,995.80
2016,10,15,09,47,995.77
2016,10,15,09,48,995.77
2016,10,15,09,49,995.73
2016,10,15,09,50,995.73
2016,10,15,09,51,995.80
2016,10,15,09,52,995.70
2016,10,15,09,53,995.60
2016,10,15,09,54,995.67
2016,10,15,09,55,995.63
2016,10,15,09,56,995.67
2016,10,15,09,57,995.63
2016,10,15,09,58,995.56
2016,10,15,09,59,995.53
2016,10,15,10,00,995.50
2016,10,15,10,01,995.46
2016,10,15,10,02,995.43
2016,10,15,10,03,995.46
2016,10,15,10,04,995.43
2016,10,15,10,05,995.46
2016,10,15,10,06,995.43
2016,10,15,10,07,995.43
2016,10,15,10,08,995.36
2016,10,15,10,09,995.33
2016,10,15,10,10,995.33
2016,10,15,10,11,995.20
2016,10,15,10,12,995.26
2016,10,15,10,13,995.12
2016,10,15,10,14,995.09
2016,10,15,10,15,995.09
2016,10,15,10,16,995.02
2016,10,15,10,17,995.06
2016,10,15,10,18,994.92
2016,10,15,10,19,994.96
2016,10,15,10,20,994.92
2016,10,15,10,21,994.89
2016,10,15,10,22,994.89
2016,10,15,10,23,994.85
2016,10,15,10,24,994.82
2016,10,15,10,25,994.79
2016,10,15,10,26,994.68
2016,10,15,10,27,994.62
2016,10,15,10,28,994.58
2016,10,15,10,29,994.52
2016,10,15,10,30,994.52
2016,10,15,10,31,994.42
2016,10,15,10,32,994.45
2016,10,15,10,33,994.41
2016,10,15,10,34,994.48
2016,10,15,10,35,994.38
2016,10,15,10,36,994.35
2016,10,15,10,37,994.38
2016,10,15,10,38,994.41
2016,10,15,10,39,994.38
2016,10,15,10,40,994.38
2016,10,15,10,41,994.35
2016,10,15,10,42,994.41
2016,10,15,10,43,994.41
2016,10,15,10,44,994.31
2016,10,15,10,45,994.28
2016,10,15,10,46,994.21
2016,10,15,10,47,994.24
2016,10,15,10,48,994.07
2016,10,15,10,49,994.04
2016,10,15,10,50,994.07
2016,10,15,10,51,994.04
2016,10,15,10,52,994.04
2016,10,15,10,53,994.04
2016,10,15,10,54,994.04
2016,10,15,10,55,994.01
2016,10,15,10,56,994.01
2016,10,15,10,57,994.04
2016,10,15,10,58,993.97
2016,10,15,10,59,993.87
2016,10,15,11,00,993.87
2016,10,15,11,01,993.84
2016,10,15,11,02,993.80
2016,10,15,11,03,993.80
2016,10,15,11,04,993.70
2016,10,15,11,05,993.57
2016,10,15,11,06,993.57
2016,10,15,11,07,993.47
2016,10,15,11,08,993.43
2016,10,15,11,09,993.50
2016,10,15,11,10,993.36
2016,10,15,11,11,993.36
2016,10,15,11,12,993.40
2016,10,15,11,13,993.26
2016,10,15,11,14,993.26
2016,10,15,11,15,993.23
2016,10,15,11,16,993.16
2016,10,15,11,17,993.30
2016,10,15,11,18,993.26
2016,10,15,11,19,993.26
2016,10,15,11,20,993.19
2016,10,15,11,21,993.16
2016,10,15,11,22,993.23
2016,10,15,11,23,993.09
2016,10,15,11,24,992.99
2016,10,15,11,25,993.03
2016,10,15,11,26,992.96
2016,10,15,11,27,992.86
2016,10,15,11,28,992.82
2016,10,15,11,29,992.82
2016,10,15,11,30,992.82
2016,10,15,11,31,992.72
2016,10,15,11,32,992.69
2016,10,15,11,33,992.62
2016,10,15,11,34,992.65
2016,10,15,11,35,992.62
2016,10,15,11,36,992.62
2016,10,15,11,37,992.55
2016,10,15,11,38,992.55
2016,10,15,11,39,992.55
2016,10,15,11,40,992.58
2016,10,15,11,41,992.45
2016,10,15,11,42,992.45
2016,10,15,11,43,992.45
2016,10,15,11,44,992.38
2016,10,15,11,45,992.28
2016,10,15,11,46,992.21
2016,10,15,11,47,992.18
2016,10,15,11,48,992.18
2016,10,15,11,49,992.14
2016,10,15,11,50,992.11
2016,10,15,11,51,992.11
2016,10,15,11,52,992.14
2016,10,15,11,53,992.18
2016,10,15,11,54,992.18
2016,10,15,11,55,992.14
2016,10,15,11,56,992.18
2016,10,15,11,57,992.11
2016,10,15,11,58,992.04
2016,10,15,11,59,991.94
2016,10,15,12,00,991.87
2016,10,15,12,01,991.84
2016,10,15,12,02,991.81
2016,10,15,12,03,991.81
2016,10,15,12,04,991.77
2016,10,15,12,05,991.77
2016,10,15,12,06,991.81
2016,10,15,12,07,991.77
2016,10,15,12,08,991.70
2016,10,15,12,09,991.70
2016,10,15,12,10,991.70
2016,10,15,12,11,991.67
2016,10,15,12,12,991.60
2016,10,15,12,13,991.57
2016,10,15,12,14,991.53
2016,10,15,12,15,991.43
2016,10,15,12,16,991.37
2016,10,15,12,17,991.37
2016,10,15,12,18,991.33
2016,10,15,12,19,991.26
2016,10,15,12,20,991.16
2016,10,15,12,21,991.09
2016,10,15,12,22,990.99
2016,10,15,12,23,990.99
2016,10,15,12,24,990.89
2016,10,15,12,25,990.86
2016,10,15,12,26,990.93
2016,10,15,12,27,990.86
2016,10,15,12,28,990.86
2016,10,15,12,29,990.73
2016,10,15,12,30,990.79
2016,10,15,12,31,990.72
2016,10,15,12,32,990.62
2016,10,15,12,33,990.52
2016,10,15,12,34,990.49
2016,10,15,12,35,990.45
2016,10,15,12,36,990.38
2016,10,15,12,37,990.32
2016,10,15,12,38,990.21
2016,10,15,12,39,990.15
2016,10,15,12,40,990.11
2016,10,15,12,41,990.04
2016,10,15,12,42,990.15
2016,10,15,12,43,990.21
2016,10,15,12,44,990.21
2016,10,15,12,45,990.18
2016,10,15,12,46,990.21
2016,10,15,12,47,990.18
2016,10,15,12,48,990.18
2016,10,15,12,49,990.11
2016,10,15,12,50,990.01
2016,10,15,12,51,989.91
2016,10,15,12,52,989.74
2016,10,15,12,53,989.67
2016,10,15,12,54,989.47
2016,10,15,12,55,989.44
2016,10,15,12,56,989.50
2016,10,15,12,57,989.38
2016,10,15,12,58,989.37
2016,10,15,12,59,989.27
2016,10,15,13,00,989.20
2016,10,15,13,01,989.20
2016,10,15,13,02,989.30
2016,10,15,13,03,989.16
2016,10,15,13,04,989.16
2016,10,15,13,05,989.16
2016,10,15,13,06,989.10
2016,10,15,13,07,989.16
2016,10,15,13,08,989.20
2016,10,15,13,09,989.20
2016,10,15,13,10,989.16
2016,10,15,13,11,989.10
2016,10,15,13,12,989.03
2016,10,15,13,13,989.03
2016,10,15,13,14,988.86
2016,10,15,13,15,988.86
2016,10,15,13,16,988.83
2016,10,15,13,17,988.76
2016,10,15,13,18,988.76
2016,10,15,13,19,988.76
2016,10,15,13,20,988.76
2016,10,15,13,21,988.69
2016,10,15,13,22,988.62
2016,10,15,13,23,988.62
2016,10,15,13,24,988.59
2016,10,15,13,25,988.52
2016,10,15,13,26,988.52
2016,10,15,13,27,988.55
2016,10,15,13,28,988.49
2016,10,15,13,29,988.55
2016,10,15,13,30,988.59
2016,10,15,13,31,988.52
2016,10,15,13,32,988.55
2016,10,15,13,33,988.49
2016,10,15,13,34,988.42
2016,10,15,13,35,988.42
2016,10,15,13,36,988.39
2016,10,15,13,37,988.42
2016,10,15,13,38,988.42
2016,10,15,13,39,988.39
2016,10,15,13,40,988.39
2016,10,15,13,41,988.45
2016,10,15,13,42,988.45
2016,10,15,13,43,988.42
2016,10,15,13,44,988.39
2016,10,15,13,45,988.28
2016,10,15,13,46,988.25
2016,10,15,13,47,988.25
2016,10,15,13,48,988.15
2016,10,15,13,49,988.05
2016,10,15,13,50,988.01
2016,10,15,13,51,987.95
2016,10,15,13,52,987.88
2016,10,15,13,53,987.84
2016,10,15,13,54,987.88
2016,10,15,13,55,987.81
2016,10,15,13,56,987.74
2016,10,15,13,57,987.71
2016,10,15,13,58,987.61
2016,10,15,13,59,987.61
2016,10,15,14,00,987.51
2016,10,15,14,01,987.47
2016,10,15,14,02,987.30
2016,10,15,14,03,987.23
2016,10,15,14,04,987.11
2016,10,15,14,05,986.96
2016,10,15,14,06,986.93
2016,10,15,14,07,986.93
2016,10,15,14,08,986.93
2016,10,15,14,09,986.86
2016,10,15,14,10,986.83
2016,10,15,14,11,986.69
2016,10,15,14,12,986.62
2016,10,15,14,13,986.69
2016,10,15,14,14,986.66
2016,10,15,14,15,986.56
2016,10,15,14,16,986.39
2016,10,15,14,17,986.32
2016,10,15,14,18,986.29
2016,10,15,14,19,986.13
2016,10,15,14,20,986.05
2016,10,15,14,21,986.02
2016,10,15,14,22,985.91
2016,10,15,14,23,985.78
2016,10,15,14,24,985.61
2016,10,15,14,25,985.37
2016,10,15,14,26,985.41
2016,10,15,14,27,985.47
2016,10,15,14,28,985.47
2016,10,15,14,29,985.37
2016,10,15,14,30,985.30
2016,10,15,14,31,985.24
2016,10,15,14,32,985.20
2016,10,15,14,33,985.20
2016,10,15,14,34,985.13
2016,10,15,14,35,985.10
2016,10,15,14,36,985.07
2016,10,15,14,37,984.93
2016,10,15,14,38,984.86
2016,10,15,14,39,984.93
2016,10,15,14,40,984.83
2016,10,15,14,41,984.86
2016,10,15,14,42,984.93
2016,10,15,14,43,984.76
2016,10,15,14,44,984.80
2016,10,15,14,45,984.76
2016,10,15,14,46,984.80
2016,10,15,14,47,984.69
2016,10,15,14,48,984.76
2016,10,15,14,49,984.59
2016,10,15,14,50,984.49
2016,10,15,14,51,984.42
2016,10,15,14,52,984.49
2016,10,15,14,53,984.49
2016,10,15,14,54,984.49
2016,10,15,14,55,984.46
2016,10,15,14,56,984.39
2016,10,15,14,57,984.25
2016,10,15,14,58,984.12
2016,10,15,14,59,983.95
2016,10,15,15,00,984.11
2016,10,15,15,01,984.08
2016,10,15,15,02,984.02
2016,10,15,15,03,983.98
2016,10,15,15,04,983.95
2016,10,15,15,05,983.92
2016,10,15,15,06,983.85
2016,10,15,15,07,983.85
2016,10,15,15,08,983.78
2016,10,15,15,09,983.78
2016,10,15,15,10,983.75
2016,10,15,15,11,983.71
2016,10,15,15,12,983.59
2016,10,15,15,13,983.54
2016,10,15,15,14,983.48
2016,10,15,15,15,983.60
2016,10,15,15,16,983.49
2016,10,15,15,17,983.48
2016,10,15,15,18,983.54
2016,10,15,15,19,983.44
2016,10,15,15,20,983.48
2016,10,15,15,21,983.48
2016,10,15,15,22,983.31
2016,10,15,15,23,983.31
2016,10,15,15,24,983.27
2016,10,15,15,25,983.24
2016,10,15,15,26,983.10
2016,10,15,15,27,983.04
2016,10,15,15,28,983.04
2016,10,15,15,29,983.07
2016,10,15,15,30,983.00
2016,10,15,15,31,982.83
2016,10,15,15,32,982.97
2016,10,15,15,33,982.97
2016,10,15,15,34,982.97
2016,10,15,15,35,982.97
2016,10,15,15,36,982.93
2016,10,15,15,37,982.83
2016,10,15,15,38,982.80
2016,10,15,15,39,982.90
2016,10,15,15,40,982.87
2016,10,15,15,41,982.73
2016,10,15,15,42,982.70
2016,10,15,15,43,982.70
2016,10,15,15,44,982.70
2016,10,15,15,45,982.73
2016,10,15,15,46,982.73
2016,10,15,15,47,982.66
2016,10,15,15,48,982.66
2016,10,15,15,49,982.56
2016,10,15,15,50,982.49
2016,10,15,15,51,982.49
2016,10,15,15,52,982.46
2016,10,15,15,53,982.39
2016,10,15,15,54,982.23
2016,10,15,15,55,982.22
2016,10,15,15,56,982.19
2016,10,15,15,57,982.26
2016,10,15,15,58,982.22
2016,10,15,15,59,982.19
2016,10,15,16,00,982.15
2016,10,15,16,01,982.19
2016,10,15,16,02,982.19
2016,10,15,16,03,982.28
2016,10,15,16,04,982.20
2016,10,15,16,05,982.12
2016,10,15,16,06,982.09
2016,10,15,16,07,982.12
2016,10,15,16,08,982.22
2016,10,15,16,09,982.12
2016,10,15,16,10,982.19
2016,10,15,16,11,982.09
2016,10,15,16,12,981.95
2016,10,15,16,13,982.12
2016,10,15,16,14,982.09
2016,10,15,16,15,982.15
2016,10,15,16,16,982.09
2016,10,15,16,17,982.19
2016,10,15,16,18,982.09
2016,10,15,16,19,981.93
2016,10,15,16,20,982.11
2016,10,15,16,21,982.05
2016,10,15,16,22,981.99